OE6PLD-13 Weather Reports


time (UTC)temp
F
wind
direction
speed
knots
gust
knots
rain 1hr
in
rain 24hr
in
rain mn
in
humidity
%
barometer
mb
20260507065924 59 266 0.0 0.0 0.03 0.03 0.00 81 1016.1
20260507065621 59 266 0.0 0.0 0.03 0.03 0.00 81 1016.2
20260507065317 59 266 0.0 0.9 0.03 0.03 0.00 82 1016.3
20260507065014 58 266 0.9 1.7 0.03 0.03 0.00 82 1016.2
20260507064711 58 266 1.7 1.7 0.03 0.03 0.00 82 1016.2
20260507064407 59 266 0.9 2.6 0.03 0.03 0.00 82 1016.1
20260507064104 59 266 1.7 2.6 0.03 0.03 0.00 81 1016.2
20260507063801 60 266 0.0 0.0 0.03 0.03 0.00 81 1016.1
20260507063457 60 266 0.0 0.0 0.03 0.03 0.00 80 1016.2
20260507063154 59 266 0.0 0.0 0.03 0.03 0.00 81 1016.0
20260507062851 59 266 0.0 0.0 0.03 0.03 0.00 82 1016.0
20260507062547 58 266 0.0 0.0 0.03 0.03 0.00 82 1016.2
20260507062244 58 266 0.0 0.0 0.03 0.03 0.00 83 1016.0
20260507061940 58 266 0.0 0.0 0.03 0.03 0.00 83 1016.0
20260507061637 57 266 0.0 0.0 0.03 0.03 0.00 84 1016.0
20260507061334 57 266 0.0 0.0 0.03 0.03 0.00 85 1016.2
20260507061030 57 266 0.0 0.0 0.03 0.03 0.00 85 1016.1
20260507060727 57 266 0.0 0.0 0.03 0.03 0.00 85 1016.1
20260507060424 56 266 0.0 0.0 0.03 0.03 0.00 86 1016.1
20260507060120 56 266 0.0 0.0 0.03 0.03 0.00 86 1016.1
20260507055817 57 266 0.0 0.0 0.03 0.03 0.00 85 1016.0
20260507055514 56 266 0.0 0.0 0.03 0.03 0.00 86 1016.0
20260507055210 56 266 0.0 0.0 0.03 0.03 0.00 86 1016.0
20260507054907 56 266 0.0 0.0 0.03 0.03 0.00 87 1015.9
20260507054604 56 266 0.0 0.0 0.03 0.03 0.00 87 1015.7
20260507054300 56 266 0.0 0.0 0.03 0.03 0.00 87 1015.7
20260507053957 56 266 0.0 0.0 0.03 0.03 0.00 87 1015.6
20260507053654 56 266 0.0 0.0 0.03 0.03 0.00 87 1015.7
20260507053350 55 266 0.0 0.0 0.03 0.03 0.00 87 1015.6
20260507053047 55 266 0.0 0.0 0.03 0.03 0.00 87 1015.7
20260507052744 55 266 0.0 0.0 0.03 0.03 0.00 87 1015.5
20260507052440 55 266 0.0 0.0 0.03 0.03 0.00 87 1015.5
20260507052137 55 266 0.0 0.0 0.03 0.03 0.00 88 1015.3
20260507051833 55 266 0.0 0.0 0.03 0.03 0.00 88 1015.4
20260507051530 55 266 0.0 0.0 0.03 0.03 0.00 88 1015.5
20260507051227 54 266 0.0 0.0 0.03 0.03 0.00 88 1015.3
20260507050923 54 266 0.0 0.0 0.03 0.03 0.00 89 1015.2
20260507050620 54 266 0.0 0.0 0.03 0.03 0.00 89 1015.3
20260507050317 54 266 0.0 0.0 0.03 0.03 0.00 89 1015.3
20260507050013 54 266 0.0 0.0 0.03 0.03 0.00 89 1015.2
20260507045710 54 266 0.0 0.0 0.03 0.03 0.00 89 1015.2
20260507045406 54 266 0.0 0.0 0.03 0.03 0.00 89 1015.1
20260507045103 53 266 0.0 0.0 0.03 0.03 0.00 89 1014.8
20260507044800 53 266 0.0 0.0 0.03 0.03 0.00 89 1015.2
20260507044456 53 266 0.0 0.0 0.03 0.03 0.00 89 1015.1
20260507044153 53 266 0.0 0.0 0.03 0.03 0.00 90 1015.1
20260507043850 53 266 0.0 0.0 0.03 0.03 0.00 90 1014.9
20260507043546 53 266 0.0 0.0 0.03 0.03 0.00 90 1015.0
20260507043243 53 266 0.0 0.0 0.03 0.03 0.00 90 1015.0
20260507042940 53 266 0.0 0.0 0.03 0.03 0.00 90 1014.8
20260507042636 53 266 0.0 0.0 0.03 0.03 0.00 90 1015.0
20260507042333 53 266 0.0 0.0 0.03 0.03 0.00 90 1015.0
20260507042030 53 266 0.0 0.0 0.03 0.03 0.00 90 1014.9
20260507041726 53 266 0.0 0.0 0.03 0.03 0.00 90 1014.8
20260507041423 53 266 0.0 0.0 0.03 0.03 0.00 89 1015.0
20260507041120 53 266 0.0 0.0 0.03 0.03 0.00 89 1014.9
20260507040816 53 266 0.0 0.0 0.03 0.03 0.00 89 1014.7
20260507040513 53 266 0.0 0.0 0.03 0.03 0.00 89 1014.8
20260507040210 53 266 0.0 0.0 0.03 0.03 0.00 89 1014.9
20260507035906 53 266 0.0 0.0 0.03 0.03 0.00 89 1014.7
20260507035603 53 266 0.0 0.0 0.03 0.03 0.00 89 1014.8
20260507035259 53 266 0.0 0.0 0.03 0.03 0.00 89 1014.6
20260507034956 53 266 0.0 0.0 0.03 0.03 0.00 89 1014.5
20260507034653 53 266 0.0 0.0 0.03 0.03 0.00 89 1014.5
20260507034349 53 266 0.0 0.0 0.03 0.03 0.00 89 1014.5
20260507034046 53 266 0.0 0.0 0.03 0.03 0.00 89 1014.6
20260507033743 53 266 0.0 0.0 0.03 0.03 0.00 89 1014.5
20260507033439 53 266 0.0 0.9 0.03 0.03 0.00 89 1014.5
20260507033136 53 266 0.0 1.7 0.03 0.03 0.00 89 1014.4
20260507032833 53 266 0.9 1.7 0.03 0.03 0.00 89 1014.3
20260507032529 53 266 0.9 2.6 0.03 0.03 0.00 88 1014.2
20260507032226 53 266 1.7 1.7 0.03 0.03 0.00 89 1014.2
20260507031923 53 266 0.0 1.7 0.03 0.03 0.00 88 1014.4
20260507031619 54 266 0.9 1.7 0.03 0.03 0.00 88 1014.2
20260507031316 54 266 0.0 0.0 0.03 0.03 0.00 88 1014.4
20260507031012 54 266 0.0 0.0 0.03 0.03 0.00 88 1014.2
20260507030709 54 266 0.0 0.0 0.03 0.03 0.00 88 1014.2
20260507030406 54 266 0.0 0.0 0.03 0.03 0.00 88 1014.2
20260507025759 54 266 0.0 0.0 0.03 0.03 0.00 88 1014.1
20260507025456 54 266 0.0 1.7 0.03 0.03 0.00 87 1014.3
20260507025152 54 266 0.9 1.7 0.03 0.03 0.00 87 1014.1
20260507024849 55 266 0.0 0.9 0.03 0.03 0.00 87 1014.1
20260507024546 55 266 0.0 0.0 0.03 0.03 0.00 87 1014.3
20260507024242 55 266 0.0 0.0 0.03 0.03 0.00 87 1014.1
20260507023939 55 266 0.0 0.0 0.03 0.03 0.00 87 1014.3
20260507023636 55 266 0.0 0.0 0.03 0.03 0.00 87 1014.4
20260507023332 55 266 0.0 0.0 0.03 0.03 0.00 87 1014.0
20260507023029 55 266 0.0 0.0 0.03 0.03 0.00 87 1014.2
20260507022726 54 266 0.0 0.0 0.03 0.03 0.00 87 1014.2
20260507022422 54 266 0.0 0.0 0.03 0.03 0.00 87 1014.3
20260507022119 54 266 0.0 0.0 0.03 0.03 0.00 88 1014.3
20260507021816 54 266 0.0 0.0 0.03 0.03 0.00 88 1014.3
20260507021512 54 266 0.0 0.0 0.03 0.03 0.00 88 1014.1
20260507021209 54 266 0.0 0.0 0.03 0.03 0.00 88 1014.4
20260507020905 54 266 0.0 0.0 0.03 0.03 0.00 88 1014.4
20260507020602 54 266 0.0 0.9 0.03 0.03 0.00 88 1014.3
20260507020259 54 266 0.9 1.7 0.03 0.03 0.00 87 1014.4
20260507015955 54 266 0.9 2.6 0.03 0.03 0.00 87 1014.3
20260507015652 54 266 0.9 2.6 0.03 0.03 0.00 87 1014.2
20260507015349 54 266 1.7 2.6 0.03 0.03 0.00 86 1014.3
20260507015045 55 266 1.7 2.6 0.03 0.03 0.00 86 1014.2
20260507014742 55 266 0.9 1.7 0.03 0.03 0.00 87 1014.3
20260507014439 54 266 0.0 0.0 0.03 0.03 0.00 87 1014.0
20260507014135 54 266 0.0 0.0 0.03 0.03 0.00 87 1014.2
20260507013832 54 266 0.0 0.0 0.03 0.03 0.00 87 1014.1
20260507013529 54 266 0.0 0.0 0.03 0.03 0.00 87 1014.0
20260507013225 54 266 0.0 1.7 0.03 0.03 0.00 87 1014.1
20260507012922 54 266 0.9 1.7 0.03 0.03 0.00 87 1014.1
20260507012618 54 266 0.9 1.7 0.03 0.03 0.00 87 1014.2
20260507012315 54 266 0.0 0.0 0.03 0.03 0.00 87 1014.1
20260507012012 54 266 0.0 0.0 0.03 0.03 0.00 87 1014.0
20260507011709 54 266 0.0 0.0 0.03 0.03 0.00 87 1014.2
20260507011405 54 266 0.0 1.7 0.03 0.03 0.00 87 1014.1
20260507011102 54 266 0.9 1.7 0.03 0.03 0.00 87 1014.2
20260507010758 54 266 0.9 1.7 0.03 0.03 0.00 87 1014.1
20260507010455 54 266 0.9 1.7 0.03 0.03 0.00 87 1014.0
20260507010151 54 266 0.9 1.7 0.03 0.03 0.00 87 1014.2
20260507005848 54 266 0.0 1.7 0.03 0.03 0.00 87 1014.1
20260507005545 54 266 1.7 2.6 0.03 0.03 0.00 87 1014.3
20260507005242 54 266 0.9 2.6 0.03 0.03 0.00 87 1014.2
20260507004938 54 266 1.7 3.5 0.03 0.03 0.00 87 1013.9
20260507004635 54 266 2.6 3.5 0.03 0.03 0.00 87 1014.1
20260507004331 53 266 1.7 4.3 0.03 0.03 0.00 87 1014.2
20260507004028 53 266 2.6 4.3 0.03 0.03 0.00 87 1014.1
20260507003725 53 266 2.6 4.3 0.03 0.03 0.00 87 1014.1
20260507003421 53 266 1.7 3.5 0.03 0.03 0.00 87 1014.2
20260507003118 53 266 0.9 3.5 0.03 0.03 0.00 87 1013.9
20260507002815 53 262 2.6 4.3 0.03 0.03 0.00 87 1014.1
20260507002511 53 257 2.6 5.2 0.03 0.03 0.00 87 1014.0
20260507002208 53 253 3.5 4.3 0.03 0.03 0.00 87 1013.9
20260507001905 53 250 1.7 2.6 0.03 0.03 0.00 87 1013.9
20260507001601 53 246 0.9 2.6 0.03 0.03 0.00 87 1014.2
20260507001258 54 241 1.7 3.5 0.03 0.03 0.00 87 1014.0
20260507000955 54 239 2.6 3.5 0.03 0.03 0.00 87 1014.1
20260507000651 54 235 1.7 2.6 0.03 0.03 0.00 86 1014.0
20260507000350 54 226 0.0 0.0 0.03 0.03 0.00 86 1014.1
20260507000044 54 215 0.0 1.7 0.03 0.03 0.00 86 1014.0
20260506235741 54 204 0.9 1.7 0.03 0.03 0.00 86 1014.0
20260506235438 54 184 0.0 1.7 0.03 0.03 0.00 86 1014.0
20260506235134 54 165 0.9 2.6 0.03 0.03 0.00 85 1014.1
20260506234831 55 152 1.7 2.6 0.03 0.03 0.00 84 1014.1
20260506234528 55 132 0.0 0.0 0.03 0.03 0.00 84 1014.2
20260506234224 55 133 0.0 1.7 0.03 0.03 0.00 83 1014.1
20260506233921 56 132 0.9 2.6 0.03 0.03 0.00 82 1014.0
20260506233618 57 122 0.9 2.6 0.03 0.03 0.00 81 1013.8
20260506233314 59 116 1.7 3.5 0.03 0.03 0.00 79 1013.8
20260506233011 60 109 0.9 1.7 0.03 0.03 0.00 77 1014.0
20260506232708 59 109 0.9 2.6 0.03 0.03 0.00 77 1013.9
20260506232404 59 108 0.0 3.5 0.03 0.03 0.00 77 1013.7
20260506232101 59 106 0.9 3.5 0.03 0.03 0.00 78 1013.9
20260506231758 59 102 0.0 2.6 0.03 0.03 0.00 79 1014.1
20260506231454 59 100 0.0 1.7 0.03 0.03 0.00 78 1014.1
20260506231151 59 98 0.0 0.0 0.03 0.03 0.00 79 1014.1
20260506230847 59 98 0.0 1.7 0.03 0.03 0.00 78 1014.1
20260506230544 59 98 0.0 2.6 0.03 0.03 0.00 78 1014.0
20260506230241 58 96 0.9 1.7 0.03 0.03 0.00 80 1014.1
20260506225937 58 96 0.0 0.0 0.03 0.03 0.00 80 1013.9
20260506225634 59 98 0.0 0.0 0.03 0.03 0.00 79 1014.0
20260506225331 59 99 0.0 0.0 0.03 0.03 0.00 78 1014.1
20260506225027 60 101 0.0 1.7 0.03 0.03 0.00 78 1014.0
20260506224724 60 102 0.0 1.7 0.03 0.03 0.00 77 1014.0
20260506224421 59 101 0.9 1.7 0.03 0.03 0.00 78 1014.0
20260506224118 59 101 0.0 0.9 0.03 0.03 0.00 78 1013.8
20260506223814 59 104 0.0 5.2 0.03 0.03 0.00 78 1014.0
20260506223511 59 103 0.0 5.2 0.03 0.03 0.00 78 1013.9
20260506223207 59 100 0.0 2.6 0.03 0.03 0.00 79 1014.1
20260506222904 59 100 0.0 0.0 0.03 0.03 0.00 79 1014.1
20260506222601 59 102 0.0 0.0 0.03 0.03 0.00 79 1014.0
20260506222257 59 104 0.0 2.6 0.03 0.03 0.00 78 1014.0
20260506221954 60 106 0.0 4.3 0.03 0.03 0.00 78 1013.9
20260506221651 60 106 0.9 5.2 0.03 0.03 0.00 78 1013.9
20260506221347 60 101 0.9 2.6 0.03 0.03 0.00 78 1013.8
20260506221044 60 101 0.0 2.6 0.03 0.03 0.00 78 1013.8
20260506220741 60 99 0.0 0.9 0.03 0.03 0.00 78 1013.9
20260506220437 60 101 0.0 4.3 0.03 0.03 0.00 78 1013.8
20260506220134 59 100 0.0 1.7 0.03 0.03 0.00 78 1014.0
20260506215830 60 101 0.0 1.7 0.03 0.03 0.00 78 1013.9
20260506215527 60 103 0.0 1.7 0.03 0.03 0.00 78 1014.0
20260506215224 60 104 0.0 3.5 0.03 0.03 0.00 78 1014.0
20260506214920 60 105 0.0 5.2 0.03 0.03 0.00 78 1013.9
20260506214617 60 104 0.9 5.2 0.03 0.03 0.00 77 1013.9
20260506214314 60 101 0.9 2.6 0.03 0.03 0.00 77 1013.8
20260506214010 60 102 0.0 2.6 0.03 0.03 0.00 77 1013.8
20260506213707 60 101 0.0 2.6 0.03 0.03 0.00 78 1013.6
20260506213404 60 102 1.7 1.7 0.03 0.03 0.00 77 1013.7
20260506213100 60 101 0.9 2.6 0.03 0.03 0.00 77 1013.7
20260506212757 60 103 0.0 4.3 0.03 0.03 0.00 77 1013.6
20260506212453 60 101 0.0 4.3 0.03 0.03 0.00 77 1013.6
20260506212150 60 101 0.0 4.3 0.03 0.03 0.00 77 1013.8
20260506211847 60 99 0.9 4.3 0.03 0.03 0.00 77 1013.8
20260506211543 60 94 0.0 0.9 0.03 0.03 0.00 77 1013.8
20260506211240 60 95 0.0 1.7 0.03 0.03 0.00 77 1013.6
20260506210937 60 94 0.0 1.7 0.03 0.03 0.00 77 1013.7
20260506210633 60 94 0.0 0.9 0.03 0.03 0.00 77 1013.5
20260506210330 60 96 0.0 0.0 0.03 0.03 0.00 77 1013.7
20260506210026 60 97 0.0 0.9 0.03 0.03 0.00 76 1013.7
20260506205723 61 99 0.0 7.0 0.03 0.03 0.00 76 1013.6
20260506205420 61 101 2.6 7.0 0.03 0.03 0.00 76 1013.5
20260506205117 61 99 0.9 3.5 0.03 0.03 0.00 76 1013.8
20260506204813 61 98 0.0 3.5 0.03 0.03 0.00 76 1013.4
20260506204510 61 96 0.0 1.7 0.03 0.03 0.00 76 1013.6
20260506204206 61 97 0.0 4.3 0.03 0.03 0.00 75 1013.4
20260506203903 61 96 0.0 2.6 0.03 0.03 0.00 75 1013.6
20260506203600 61 97 1.7 5.2 0.03 0.03 0.00 75 1013.7
20260506203256 61 98 0.0 5.2 0.03 0.03 0.00 75 1013.4
20260506202953 61 97 0.0 2.6 0.03 0.03 0.00 74 1013.5
20260506202650 62 98 0.9 2.6 0.03 0.03 0.00 74 1013.4
20260506202346 62 96 0.9 2.6 0.03 0.03 0.00 74 1013.7
20260506202043 62 95 0.0 2.6 0.03 0.03 0.00 74 1013.6
20260506201740 62 95 0.0 1.7 0.03 0.03 0.00 74 1013.8
20260506201436 62 96 0.0 3.5 0.03 0.03 0.00 73 1013.8
20260506201133 62 97 0.0 3.5 0.03 0.03 0.00 73 1013.5
20260506200830 62 98 0.9 2.6 0.03 0.03 0.00 73 1013.5
20260506200526 62 98 0.0 2.6 0.03 0.03 0.00 73 1013.4
20260506200223 62 99 0.9 3.5 0.03 0.03 0.00 73 1013.7
20260506195920 62 99 2.6 2.6 0.03 0.03 0.00 73 1013.5
20260506195616 62 98 1.7 2.6 0.03 0.03 0.00 73 1013.7
20260506195313 62 99 0.9 3.5 0.03 0.03 0.00 72 1013.5
20260506195009 62 99 0.9 3.5 0.03 0.03 0.00 72 1013.5
20260506194706 62 97 0.9 4.3 0.03 0.03 0.00 73 1013.4
20260506194403 62 98 1.7 4.3 0.03 0.03 0.00 73 1013.4
20260506194059 62 98 0.0 2.6 0.03 0.03 0.00 73 1013.6
20260506193756 62 101 0.9 7.0 0.03 0.03 0.00 72 1013.4
20260506193453 62 100 0.9 2.6 0.03 0.03 0.00 72 1013.5
20260506193149 62 99 0.0 1.7 0.03 0.03 0.00 72 1013.3
20260506192846 62 100 0.9 2.6 0.03 0.03 0.00 72 1013.6
20260506192543 62 100 0.0 3.5 0.03 0.03 0.00 71 1013.4
20260506192239 62 100 0.9 5.2 0.03 0.03 0.00 71 1013.4
20260506191936 62 100 0.9 5.2 0.03 0.03 0.00 71 1013.5
20260506191633 62 95 0.0 4.3 0.03 0.03 0.00 72 1013.3
20260506191329 62 97 0.0 4.3 0.03 0.03 0.00 71 1013.2
20260506191026 62 97 0.0 1.7 0.03 0.03 0.00 71 1013.1
20260506190723 63 100 0.9 4.3 0.03 0.03 0.00 71 1013.2
20260506190419 63 103 0.9 4.3 0.03 0.03 0.00 71 1013.1
20260506190116 63 101 1.7 7.0 0.03 0.03 0.00 71 1013.0
20260506185812 63 98 2.6 7.0 0.03 0.03 0.00 71 1013.1
20260506185509 63 97 0.0 2.6 0.03 0.03 0.00 71 1013.1
20260506185206 63 99 0.0 2.6 0.03 0.03 0.00 70 1012.7
20260506184902 63 100 0.0 4.3 0.03 0.03 0.00 70 1012.7
20260506184559 63 107 2.6 4.3 0.03 0.03 0.00 70 1012.6
20260506184256 63 100 0.0 2.6 0.03 0.03 0.00 70 1012.5
20260506183952 63 101 0.0 2.6 0.03 0.03 0.00 70 1012.4
20260506183649 63 98 0.0 3.5 0.03 0.03 0.00 70 1012.6
20260506183346 63 102 0.0 3.5 0.03 0.03 0.00 70 1012.6
20260506183042 63 41 0.9 2.6 0.03 0.03 0.00 70 1012.4
20260506182739 63 312 0.0 1.7 0.03 0.03 0.00 70 1012.5
20260506182436 63 277 0.0 1.7 0.03 0.03 0.00 70 1012.5
20260506182132 63 272 0.0 1.7 0.03 0.03 0.00 69 1012.5
20260506181829 64 264 0.0 1.7 0.03 0.03 0.00 69 1012.4
20260506181526 64 264 0.0 0.9 0.03 0.03 0.00 69 1012.2
20260506181222 64 260 0.0 0.9 0.03 0.03 0.00 68 1012.3
20260506180919 64 260 0.0 1.7 0.03 0.03 0.00 68 1012.1
20260506180616 64 259 0.0 1.7 0.03 0.03 0.00 67 1012.1
20260506180312 64 259 0.0 3.5 0.03 0.03 0.00 67 1012.2
20260506180009 65 256 2.6 5.2 0.03 0.03 0.00 66 1012.4
20260506175705 65 254 0.0 5.2 0.03 0.03 0.00 66 1012.3
20260506175402 65 256 1.7 2.6 0.03 0.03 0.00 66 1012.3
20260506175059 65 256 0.0 8.7 0.03 0.03 0.00 66 1012.2
20260506174755 65 258 4.3 8.7 0.03 0.03 0.00 66 1012.1
20260506174452 65 263 0.0 0.9 0.03 0.03 0.00 66 1012.1
20260506174148 66 261 0.0 2.6 0.03 0.03 0.00 65 1012.3
20260506173845 66 260 1.7 4.3 0.03 0.03 0.00 65 1012.2
20260506173542 66 261 0.0 4.3 0.03 0.03 0.00 65 1012.2
20260506173238 66 260 2.6 7.0 0.03 0.03 0.00 64 1012.2
20260506172935 67 264 2.6 4.3 0.03 0.03 0.00 64 1011.9
20260506172632 67 265 2.6 4.3 0.03 0.03 0.00 63 1012.1
20260506172328 68 267 0.9 1.7 0.03 0.03 0.00 61 1012.1
20260506172025 68 266 0.0 0.9 0.03 0.03 0.00 60 1012.2
20260506171722 68 264 0.0 0.9 0.03 0.03 0.00 61 1012.1
20260506171419 68 263 0.0 2.6 0.03 0.03 0.00 62 1012.1
20260506171115 68 263 0.0 8.7 0.03 0.03 0.00 61 1012.2
20260506170812 68 264 2.6 8.7 0.03 0.03 0.00 62 1012.2
20260506170508 68 266 2.6 2.6 0.03 0.03 0.00 61 1012.0
20260506170205 68 266 0.0 5.2 0.03 0.03 0.00 61 1012.4
20260506165902 68 266 0.0 5.2 0.03 0.03 0.00 61 1012.1
20260506165558 68 266 2.6 11.3 0.03 0.03 0.00 60 1012.0
20260506165255 69 266 4.3 11.3 0.03 0.03 0.00 60 1012.3
20260506164952 70 266 4.3 7.8 0.03 0.03 0.00 58 1012.2
20260506164648 70 266 0.9 5.2 0.03 0.03 0.00 57 1012.4
20260506164345 71 266 1.7 7.8 0.03 0.03 0.00 56 1012.2
20260506164042 70 266 4.3 7.8 0.03 0.03 0.00 57 1012.3
20260506163738 69 266 0.0 7.8 0.03 0.03 0.00 59 1012.1
20260506163435 68 266 0.9 13.0 0.03 0.03 0.00 59 1012.2
20260506163132 68 266 5.2 10.4 0.03 0.03 0.00 59 1012.1
20260506162828 68 266 1.7 10.4 0.03 0.03 0.00 60 1012.4
20260506162525 68 266 3.5 9.6 0.03 0.03 0.00 59 1012.4
20260506162222 68 266 1.7 11.3 0.03 0.03 0.00 59 1012.4
20260506161918 69 266 2.6 10.4 0.03 0.03 0.00 59 1012.1
20260506161615 69 266 0.9 15.6 0.03 0.03 0.00 58 1012.3
20260506161312 71 266 2.6 8.7 0.03 0.03 0.00 56 1012.3
20260506161008 72 266 6.1 8.7 0.03 0.03 0.00 54 1012.2
20260506160705 71 266 1.7 7.8 0.03 0.03 0.00 55 1012.1
20260506160401 70 266 0.9 9.6 0.03 0.03 0.00 57 1012.4
20260506160058 69 266 6.1 9.6 0.03 0.03 0.00 57 1012.4
20260506155755 70 266 5.2 12.2 0.03 0.03 0.00 56 1012.5
20260506155451 71 266 5.2 12.2 0.03 0.03 0.00 55 1012.5
20260506155148 71 266 6.1 11.3 0.03 0.03 0.00 54 1012.3
20260506154844 71 266 7.8 14.8 0.03 0.03 0.00 55 1012.3
20260506154541 71 266 7.8 14.8 0.03 0.03 0.00 55 1012.5
20260506154238 70 266 7.0 11.3 0.03 0.03 0.00 55 1012.4
20260506153934 71 266 7.8 11.3 0.03 0.03 0.00 56 1012.6
20260506153631 71 266 7.8 10.4 0.03 0.03 0.00 54 1012.4
20260506153328 71 266 2.6 18.2 0.03 0.03 0.00 54 1012.4
20260506153024 72 266 2.6 18.2 0.03 0.03 0.00 54 1012.5
20260506152721 73 266 3.5 10.4 0.03 0.03 0.00 52 1012.4
20260506152418 73 266 0.9 8.7 0.03 0.03 0.00 53 1012.6
20260506152115 72 266 2.6 9.6 0.03 0.03 0.00 53 1012.4
20260506151811 73 266 2.6 9.6 0.03 0.03 0.00 52 1012.4
20260506151508 75 266 6.1 9.6 0.03 0.03 0.00 50 1012.6
20260506151204 74 266 3.5 10.4 0.03 0.03 0.00 50 1012.3
20260506150901 75 266 2.6 10.4 0.03 0.03 0.00 51 1012.3
20260506150558 75 266 3.5 12.2 0.03 0.03 0.00 49 1012.3
20260506150302 74 266 3.5 12.2 0.03 0.03 0.00 52 1012.3
20260506145951 74 266 3.5 10.4 0.03 0.03 0.00 50 1012.1
20260506145648 74 266 1.7 15.6 0.03 0.03 0.00 52 1012.5
20260506145344 75 266 6.1 15.6 0.03 0.03 0.00 50 1012.2
20260506145041 74 266 3.5 14.8 0.03 0.03 0.00 49 1012.4
20260506144738 74 266 4.3 14.8 0.03 0.03 0.00 51 1012.3
20260506144434 75 266 6.1 10.4 0.03 0.03 0.00 51 1012.5
20260506144131 75 266 1.7 10.4 0.03 0.03 0.00 50 1012.3
20260506143827 75 266 0.0 10.4 0.03 0.03 0.00 51 1012.4
20260506143524 75 266 4.3 7.8 0.03 0.03 0.00 51 1012.5
20260506143220 75 266 1.7 7.8 0.03 0.03 0.00 51 1012.4
20260506142917 74 266 5.2 16.5 0.03 0.03 0.00 51 1012.4
20260506142614 75 266 8.7 16.5 0.03 0.03 0.00 51 1012.4
20260506142310 75 266 0.0 9.6 0.03 0.03 0.00 51 1012.6
20260506142007 75 266 3.5 8.7 0.03 0.03 0.00 51 1012.6
20260506141704 74 266 1.7 8.7 0.03 0.03 0.00 50 1012.7
20260506141400 73 266 0.9 8.7 0.03 0.03 0.00 51 1012.4
20260506141057 73 266 0.9 9.6 0.03 0.03 0.00 51 1012.5
20260506140753 74 266 5.2 13.0 0.03 0.03 0.00 50 1012.5
20260506140450 75 266 2.6 14.8 0.03 0.03 0.00 49 1012.6
20260506140147 75 266 8.7 14.8 0.03 0.03 0.00 49 1012.4
20260506135843 75 266 0.9 15.6 0.03 0.03 0.00 48 1012.5
20260506135540 75 266 3.5 15.6 0.03 0.03 0.00 48 1012.8
20260506135236 75 266 1.7 7.0 0.03 0.03 0.00 48 1012.4
20260506134933 75 266 3.5 12.2 0.03 0.03 0.00 48 1012.6
20260506134630 74 266 8.7 14.8 0.03 0.03 0.00 48 1012.6
20260506134326 74 266 3.5 14.8 0.03 0.03 0.00 48 1012.6
20260506134023 75 266 9.6 12.2 0.03 0.03 0.00 49 1012.5
20260506133720 76 266 7.0 8.7 0.03 0.03 0.00 47 1012.6
20260506133416 75 266 1.7 7.0 0.03 0.03 0.00 49 1012.2
20260506133113 75 266 3.5 11.3 0.03 0.03 0.00 49 1012.6
20260506132810 76 266 6.1 11.3 0.03 0.03 0.00 49 1012.7
20260506132506 75 266 1.7 12.2 0.03 0.03 0.00 49 1012.7
20260506132203 75 266 7.0 12.2 0.03 0.03 0.00 49 1012.6
20260506131859 76 266 3.5 7.0 0.03 0.03 0.00 48 1012.7
20260506131556 75 266 1.7 7.0 0.03 0.03 0.00 49 1012.7
20260506131253 76 266 1.7 9.6 0.03 0.03 0.00 48 1012.7
20260506130949 77 266 6.1 8.7 0.03 0.03 0.00 48 1012.6
20260506130646 76 266 2.6 9.6 0.03 0.03 0.00 50 1012.7
20260506130343 75 266 6.1 9.6 0.03 0.03 0.00 50 1012.7
20260506130039 75 266 1.7 7.8 0.03 0.03 0.00 49 1012.7
20260506125736 76 266 5.2 7.8 0.03 0.03 0.00 48 1012.6
20260506125433 74 266 0.9 9.6 0.03 0.03 0.00 50 1012.7
20260506125129 75 266 1.7 9.6 0.03 0.03 0.00 51 1012.8
20260506124826 74 266 2.6 11.3 0.03 0.03 0.00 51 1012.9
20260506124523 74 266 4.3 12.2 0.03 0.03 0.00 50 1012.7
20260506124219 74 266 2.6 8.7 0.03 0.03 0.00 49 1012.7
20260506123916 74 266 5.2 14.8 0.03 0.03 0.00 48 1012.9
20260506123612 73 266 2.6 17.4 0.03 0.03 0.00 49 1013.0
20260506123309 73 266 13.9 17.4 0.03 0.03 0.00 49 1013.0
20260506123006 74 266 1.7 5.2 0.03 0.03 0.00 52 1012.9
20260506122702 75 266 3.5 5.2 0.03 0.03 0.00 52 1012.9
20260506122359 75 266 0.9 3.5 0.03 0.03 0.00 51 1013.2
20260506122056 75 266 0.0 7.8 0.03 0.03 0.00 50 1013.0
20260506121752 75 266 5.2 8.7 0.03 0.03 0.00 48 1013.0
20260506121449 75 266 1.7 8.7 0.03 0.03 0.00 49 1013.1
20260506121146 74 266 4.3 8.7 0.03 0.03 0.00 50 1013.1
20260506120842 74 266 4.3 10.4 0.03 0.03 0.00 50 1013.2
20260506120539 74 266 2.6 10.4 0.03 0.03 0.00 50 1013.0
20260506120235 75 266 2.6 7.8 0.03 0.03 0.00 49 1012.9
20260506115932 73 266 6.1 12.2 0.03 0.03 0.00 50 1012.8
20260506115629 74 266 8.7 12.2 0.03 0.03 0.00 49 1012.8
20260506115325 74 266 7.0 12.2 0.03 0.03 0.00 50 1012.8
20260506115022 74 266 2.6 12.2 0.03 0.03 0.00 50 1013.0
20260506114719 73 266 3.5 11.3 0.03 0.03 0.00 50 1013.1
20260506114415 74 266 6.1 10.4 0.03 0.03 0.00 50 1012.7
20260506114112 73 266 7.8 8.7 0.03 0.03 0.00 50 1013.1
20260506113809 73 266 3.5 9.6 0.03 0.03 0.00 51 1013.1
20260506113505 73 266 7.0 9.6 0.03 0.03 0.00 51 1013.1
20260506113202 73 266 4.3 9.6 0.03 0.03 0.00 51 1013.2
20260506112858 74 266 3.5 10.4 0.03 0.03 0.00 50 1013.4
20260506112555 73 266 7.8 10.4 0.03 0.03 0.00 50 1013.1
20260506112252 72 266 4.3 11.3 0.03 0.03 0.00 51 1013.4
20260506111948 72 266 5.2 12.2 0.03 0.03 0.00 51 1013.3
20260506111645 72 266 5.2 12.2 0.03 0.03 0.00 52 1013.4
20260506111342 73 266 5.2 7.8 0.03 0.03 0.00 51 1013.4
20260506111038 72 266 1.7 11.3 0.03 0.03 0.00 52 1013.1
20260506110735 72 266 2.6 13.0 0.03 0.03 0.00 52 1013.3
20260506110431 74 266 8.7 13.0 0.03 0.03 0.00 50 1013.4
20260506110128 72 266 0.9 7.8 0.03 0.03 0.00 53 1013.3
20260506105825 71 266 1.7 7.8 0.03 0.03 0.00 55 1013.4
20260506105521 71 266 0.9 9.6 0.03 0.03 0.00 57 1013.4
20260506105218 71 266 0.0 11.3 0.03 0.03 0.00 56 1013.6
20260506104915 72 266 6.1 11.3 0.03 0.03 0.00 54 1013.6
20260506104611 73 266 4.3 11.3 0.03 0.03 0.00 52 1013.6
20260506104308 73 266 2.6 7.8 0.03 0.03 0.00 50 1013.1
20260506104005 73 266 3.5 8.7 0.03 0.03 0.00 49 1013.3
20260506103701 73 266 7.8 11.3 0.03 0.03 0.00 47 1013.5
20260506103358 74 266 5.2 7.0 0.03 0.03 0.00 46 1013.3
20260506103054 75 266 0.9 7.8 0.03 0.03 0.00 45 1013.3
20260506102751 75 266 1.7 8.7 0.03 0.03 0.00 44 1013.0
20260506102448 75 266 4.3 12.2 0.03 0.03 0.00 44 1013.2
20260506102144 76 266 3.5 12.2 0.03 0.03 0.00 44 1013.3
20260506101841 75 266 2.6 11.3 0.03 0.03 0.00 43 1013.1
20260506101538 76 266 4.3 7.8 0.03 0.03 0.00 41 1013.5
20260506101234 75 266 0.9 10.4 0.03 0.03 0.00 41 1013.2
20260506100931 74 266 4.3 10.4 0.03 0.03 0.00 44 1013.4
20260506100627 75 266 6.1 8.7 0.03 0.03 0.00 43 1013.4
20260506100324 75 266 4.3 8.7 0.03 0.03 0.00 41 1013.1
20260506100021 74 266 0.9 8.7 0.03 0.03 0.00 43 1013.1
20260506095717 74 266 2.6 7.0 0.03 0.03 0.00 42 1013.3
20260506095414 75 266 1.7 12.2 0.03 0.03 0.00 42 1013.2
20260506095111 74 266 6.1 10.4 0.03 0.03 0.00 42 1013.2
20260506094807 75 266 6.1 7.0 0.03 0.03 0.00 40 1013.2
20260506094504 75 266 3.5 7.8 0.03 0.03 0.00 41 1013.2
20260506094200 74 266 5.2 5.2 0.03 0.03 0.00 43 1013.1
20260506093857 74 266 1.7 7.8 0.03 0.03 0.00 43 1013.4
20260506093554 75 266 1.7 5.2 0.03 0.03 0.00 41 1013.2
20260506093250 74 266 0.9 9.6 0.03 0.03 0.00 43 1013.4
20260506092947 74 266 2.6 7.0 0.03 0.03 0.00 44 1013.3
20260506092644 73 266 2.6 7.8 0.03 0.03 0.00 46 1013.3
20260506092340 74 266 1.7 3.5 0.03 0.03 0.00 44 1013.4
20260506092037 73 266 0.0 7.0 0.03 0.03 0.00 47 1013.5
20260506091734 73 266 0.9 9.6 0.03 0.03 0.00 45 1013.5
20260506091430 73 266 1.7 8.7 0.03 0.03 0.00 46 1013.5
20260506091127 73 266 6.1 9.6 0.03 0.03 0.00 46 1013.6
20260506090824 73 266 1.7 3.5 0.03 0.03 0.00 47 1013.9
20260506090520 73 266 1.7 10.4 0.03 0.03 0.00 47 1013.6
20260506090217 73 266 2.6 10.4 0.03 0.03 0.00 47 1013.6
20260506085913 73 266 2.6 10.4 0.03 0.03 0.00 48 1013.6
20260506085610 72 266 2.6 10.4 0.03 0.03 0.00 51 1013.7
20260506085307 72 266 2.6 8.7 0.03 0.03 0.00 51 1013.9
20260506085003 72 266 4.3 7.0 0.03 0.03 0.00 51 1013.8
20260506084700 73 266 0.9 5.2 0.03 0.03 0.00 49 1013.7
20260506084357 72 266 0.0 3.5 0.03 0.03 0.00 52 1013.7
20260506084053 72 266 0.0 3.5 0.03 0.03 0.00 52 1013.6
20260506083750 72 266 0.0 3.5 0.03 0.03 0.00 51 1013.6
20260506083447 71 266 0.0 2.6 0.03 0.03 0.00 53 1013.5
20260506083143 70 266 0.0 7.0 0.03 0.03 0.00 54 1013.6
20260506082840 71 266 4.3 7.0 0.03 0.03 0.00 53 1013.7
20260506082537 71 266 0.9 2.6 0.03 0.03 0.00 53 1013.8
20260506082233 70 266 0.9 2.6 0.03 0.03 0.00 55 1013.9
20260506081930 70 266 0.0 7.0 0.03 0.03 0.00 56 1013.7
20260506081626 69 266 4.3 7.0 0.03 0.03 0.00 57 1013.8
20260506081323 68 266 2.6 7.0 0.03 0.03 0.00 59 1014.0
20260506081020 68 266 3.5 7.0 0.03 0.03 0.00 60 1013.9
20260506080716 69 266 2.6 5.2 0.03 0.03 0.00 58 1014.0
20260506080412 69 266 0.0 4.3 0.03 0.03 0.00 60 1014.1
20260506080108 68 266 1.7 4.3 0.03 0.03 0.00 59 1014.0
20260506073338 68 266 0.0 3.5 0.03 0.03 0.00 60 1013.9
20260506073035 67 266 0.9 3.5 0.03 0.03 0.00 60 1013.7
20260506072732 67 266 0.9 3.5 0.03 0.03 0.00 62 1013.8
20260506072428 67 266 1.7 2.6 0.03 0.03 0.00 61 1013.9
20260506072125 67 266 0.0 3.5 0.03 0.03 0.00 62 1013.9
20260506071821 67 266 0.0 4.3 0.03 0.03 0.00 61 1014.1
20260506071518 66 266 0.9 5.2 0.03 0.03 0.00 62 1014.1
20260506071215 67 266 4.3 5.2 0.03 0.03 0.00 61 1014.0
20260506070911 67 266 0.9 3.5 0.03 0.03 0.00 61 1013.9
20260506070608 67 266 0.0 2.6 0.03 0.03 0.00 63 1013.9
20260506070305 66 266 0.9 3.5 0.03 0.03 0.00 62 1013.8